Location: Écuvilly
(49.6505°N, 2.9206°E)
Time: 16:30:02
(UTC+00:00)

USA 215 - Pass Details

Date: 17 November 2025
Orbit: 1101 x 1106 km, 123.0° (Epoch: 12 December)

Event Time Altitude Azimuth Distance (km) Brightness Sun altitude
Rises 16:45:39 0° 124° (SE) 3,915 5.8 -7.1°
Reaches altitude 10° 16:48:07 10° 125° (SE) 2,960 5.2 -7.5°
Maximum altitude 16:54:41 83° 213° (SSW) 1,119 3.4 -8.5°
Drops below altitude 10° 17:01:16 10° 302° (WNW) 2,973 6.1 -9.5°
Sets 17:03:46 0° 304° (NW) 3,934 6.8 -9.9°
